TimeMDT,TemperatureF,Dew PointF,Humidity,Sea Level PressureIn,VisibilityMPH,Wind Direction,Wind SpeedMPH,Gust SpeedMPH,PrecipitationIn,Events,Conditions,WindDirDegrees,DateUTC
12:53 AM,71.1,57.0,61,29.89,10.0,ESE,21.9,-,N/A,,Clear,110,2013-07-13 06:53:00
1:53 AM,71.1,57.0,61,29.90,10.0,SE,23.0,-,N/A,,Mostly Cloudy,130,2013-07-13 07:53:00
2:53 AM,66.9,60.1,79,29.91,10.0,ESE,12.7,-,0.00,Rain,Light Rain,120,2013-07-13 08:53:00
3:53 AM,66.9,60.1,79,29.91,10.0,ESE,8.1,-,0.01,Rain,Light Rain,120,2013-07-13 09:53:00
4:53 AM,66.0,59.0,78,29.91,10.0,East,11.5,-,0.00,,Scattered Clouds,100,2013-07-13 10:53:00
5:53 AM,66.0,59.0,78,29.91,10.0,East,11.5,-,N/A,,Scattered Clouds,90,2013-07-13 11:53:00
6:53 AM,66.0,60.1,81,29.94,10.0,ESE,11.5,-,N/A,,Mostly Cloudy,110,2013-07-13 12:53:00
7:53 AM,69.1,60.1,73,29.95,10.0,ESE,13.8,-,N/A,,Scattered Clouds,120,2013-07-13 13:53:00
8:53 AM,73.9,59.0,59,29.95,10.0,ESE,11.5,-,N/A,,Scattered Clouds,120,2013-07-13 14:53:00
9:53 AM,75.9,57.0,52,29.94,10.0,SE,5.8,-,N/A,,Scattered Clouds,130,2013-07-13 15:53:00
10:53 AM,79.0,59.0,50,29.95,10.0,South,4.6,-,N/A,,Scattered Clouds,170,2013-07-13 16:53:00
11:53 AM,82.9,54.0,37,29.92,10.0,West,8.1,-,N/A,,Scattered Clouds,280,2013-07-13 17:53:00
12:04 PM,82.4,53.6,37,30.14,10.0,West,10.4,-,N/A,,Mostly Cloudy,280,2013-07-13 18:04:00
12:22 PM,78.8,60.8,54,30.15,10.0,West,11.5,-,0.00,Thunderstorm,Thunderstorm,260,2013-07-13 18:22:00
12:53 PM,77.0,60.1,56,29.95,10.0,Calm,Calm,-,0.00,Thunderstorm,Thunderstorm,0,2013-07-13 18:53:00
1:09 PM,80.6,55.4,42,30.13,10.0,East,3.5,-,N/A,,Mostly Cloudy,80,2013-07-13 19:09:00
1:53 PM,87.1,51.1,29,29.88,10.0,Variable,4.6,-,N/A,,Scattered Clouds,0,2013-07-13 19:53:00
2:53 PM,87.1,53.1,31,29.87,10.0,WSW,5.8,-,N/A,,Scattered Clouds,250,2013-07-13 20:53:00
3:53 PM,90.0,52.0,27,29.84,10.0,West,5.8,-,N/A,,Scattered Clouds,260,2013-07-13 21:53:00
4:53 PM,91.0,48.9,23,29.81,10.0,SW,6.9,-,N/A,,Scattered Clouds,230,2013-07-13 22:53:00
5:53 PM,91.0,48.0,23,29.79,10.0,Variable,3.5,-,N/A,,Scattered Clouds,0,2013-07-13 23:53:00
6:53 PM,91.0,48.0,23,29.78,10.0,WSW,3.5,-,N/A,,Scattered Clouds,240,2013-07-14 00:53:00
7:53 PM,89.1,48.0,24,29.78,10.0,Variable,4.6,-,N/A,,Scattered Clouds,0,2013-07-14 01:53:00
8:53 PM,84.0,48.0,28,29.79,10.0,SE,4.6,-,N/A,,Scattered Clouds,140,2013-07-14 02:53:00
9:53 PM,82.0,46.9,29,29.82,10.0,NE,8.1,-,N/A,,Mostly Cloudy,40,2013-07-14 03:53:00
10:53 PM,80.1,50.0,35,29.83,10.0,East,8.1,-,N/A,,Clear,80,2013-07-14 04:53:00
11:53 PM,80.1,50.0,35,29.83,10.0,West,4.6,-,N/A,,Mostly Cloudy,280,2013-07-14 05:53:00